Other Public Products
Issued by NWS Charleston, SC

Current Version | Previous Version | Graphics & Text | Print | Product List | Glossary On
Versions: 1 2 3 4 5 6 7 8 9 10 11 12 13 14 15 16 17 18 19 20 21 22 23 24 25 26 27 28 29 30 31 32 33 34 35 36 37 38 39 40 41 42 43 44 45 46 47 48 49 50
000 FPUS82 KCHS 190212 OPUCHS TEST...KCHS/KSAV Gateway Observations...TEST National Weather Service Charleston SC 900 PM EST THU JAN 18 2018 NOTE: "fair" indicates few or no clouds below 12,000 feet with no significant weather and/or obstructions to visibility. SCZ050-WAZ558-NCZ071-TXZ119-213-PAZ071-DCZ001-FLZ074-172-MI076- NYZ176-178-MAZ016-IL014-TNZ027-NJZ106-GAZ044-MD014-190300- ...Gateway Observations for Charleston International... CITY SKY/WX TMP DP RH WIND PRES REMARKS Chas Airport FAIR 37 17 44 NW9 30.32R WCI 30 Seattle CLOUDY 43 39 86 SE10 29.79S Charlotte FAIR 32 24 72 SW3 30.24F Dallas DFW PTCLDY 39 14 36 S13 30.30F WCI 31 Dallas Love PTCLDY 39 15 37 S8 30.32F WCI 33 Philladelphia FAIR 32 10 40 NW3 30.11R Wash National FAIR 41 4 21 SW3 30.11S Baltimore FAIR 32 9 38 W6 30.09R WCI 26 Miami MOCLDY 56 47 71 N6G16 30.28R Detroit FAIR 25 15 66 SW18 30.01R WCI 11 Newark FAIR 28 12 51 W9 30.08R WCI 19 Laguardia FAIR 29 13 51 NW15 30.06R WCI 18 J F K FAIR 28 13 53 NW14 30.08R WCI 17 Boston Logan FAIR 26 16 65 W10 29.94R WCI 16 Ft. Lauderdale MOCLDY 52 47 83 N8 30.28R Chicago O`Hare FAIR 31 20 63 SW14 29.97F WCI 21 Chicago Midway FAIR 31 22 69 S15 30.00F WCI 20 Houston Bush CLOUDY 37 17 44 SE7 30.43F WCI 32 Houston Hobby CLOUDY 37 25 61 CALM 30.44R Nashville FAIR 29 14 53 SW5 30.36S WCI 24 Atlanta FAIR 32 13 45 NW8 30.32F WCI 25 $$ GAZ044-118-TXZ119-213-NCZ071-DCZ001-MDZ014-506-PAZ021-071-NJZ106- NYZ176-178-MAZ106-OHZ011-021-055-MIZ076-KYZ091-ILZ014-INZ047- MNZ060-ONZ431-190300- ...Gateway Observations for Savannah International... CITY SKY/WX TMP DP RH WIND PRES REMARKS Savannah Arpt FAIR 33 20 58 CALM 30.36R Atlanta FAIR 32 13 45 NW8 30.32F WCI 25 Charlotte FAIR 32 24 72 SW3 30.24F Dallas DFW PTCLDY 39 14 36 S13 30.30F WCI 31 Houston Bush CLOUDY 37 17 44 SE7 30.43F WCI 32 Wash National FAIR 41 4 21 SW3 30.11S Wash Dulles FAIR 34 5 29 NW8 30.09S WCI 27 Baltimore FAIR 32 9 38 W6 30.09R WCI 26 Philadelphia FAIR 32 10 40 NW3 30.11R Newark FAIR 28 12 51 W9 30.08R WCI 19 Laguardia FAIR 29 13 51 NW15 30.06R WCI 18 J F K FAIR 28 13 53 NW14 30.08R WCI 17 Boston FAIR 26 16 65 W10 29.94R WCI 16 Pittsburg FAIR 24 11 57 SW10 30.13S WCI 14 Akron FAIR 23 11 60 SW17 30.09F WCI 9 Cleveland FAIR 28 13 53 S18 30.08F WCI 15 Cincinnati FAIR 25 14 63 S16 30.21F WCI 12 Columbus FAIR 23 11 61 S9 30.20F WCI 13 Detroit FAIR 25 15 66 SW18 30.01R WCI 11 Chicago O`Hare FAIR 31 20 63 SW14 29.97F WCI 21 Minneapolis CLOUDY 35 29 78 S6 29.77F WCI 30 Indianapolis FAIR 25 12 58 SW12 30.18R WCI 14 Toronto Canada MOCLDY 25 18 74 SW7 29.91F WCI 17 $$

USA.gov is the U.S. government's official web portal to all federal, state and local government web resources and services.